STARLINK-34814, 65100

Orbit data source: Space-Track

STARLINK-34814, 65100 is a payload satellite owned by SpaceX/Seattle (US) in LEO that was launched on Mon, 04 Aug 2025 UTC via an FALCON 9 launch vehicle from the Air Force Eastern Test Range (AFETR). Payload-class satellites include a variety of spacecraft equipped with specific instruments for various scientific and technological missions. These include communications satellites like Starlink; space stations such as the ISS; scientific satellites like the Hubble; Earth observation satellites from companies like Planet Labs, Umbra, and HawkEye 360; GPS; miniature CubeSats for education and research; and military/defense satellites.

Loading next visibility...
Identifier
65100, 2025-167Y
Orbit
LEO
Country
Flag of USUS
Related business
Manufacturer
SpaceX/Seattle
Mission
Operational Commercial Communications
Bus & Motor
STARLINK V2MO, Unknown motor
Mass
575 kg wet, ~530 kg dry
Launch date (UTC)
2025-08-04 (9 months ago)
Launch vehicle
FALCON 9
Launch site
Air Force Eastern Test Range (AFETR)
Object type
Payload
Rocket body
Debris
Shape & HBR
Box + 2 Pan, 17.7 m
Radar Cross Section
36.964 m², Large (>1 m²)

Expand to show TLE details & history
Last TLE update: 12 hours ago

TLE from 12 hours ago
0 STARLINK-34814
1 65100U 25167Y   26127.25003472  .00035862  00000-0  10696-2 0  9992
2 65100  53.1609 114.5225 0001840  98.3449  39.2520 15.34335866  5660
Epoch: 2026-05-07T06:00Z
TLE epoch observation values (Epoch: 2026-05-07T06:00:02.999Z)
Latitude
32.75798°
Longitude
-49.23207°
Altitude
464.085 km
Speed
7.639 km/s
True Right ascension
17h 43m 31s
True Declination
32° 35' 42"
Sunlit
Object was in full shadow at epoch
Visualization orbit readout
Latitude
Unknown
Longitude
Unknown
Altitude
Unknown
Speed
Unknown
Apparent Right ascension
Unknown
Apparent Declination
Unknown
Sunlit
N/A
Visualization observer readout
Local Sidereal Time
01:55:14
Azimuth
Unknown
Elevation
Unknown
Doppler factor
Unknown
Orbital elements
Apogee altitude
464.409 km
Perigee altitude
461.892 km
Semi-major axis
6,841.288 km
Eccentricity
0.00018
Inclination
53.1609°
RAAN
114.5225°
Arg. of periapsis
98.3449°
True anomaly
39.26534°
Mean anomaly
39.252°
Eccentric anomaly
39.25867°
Mean motion
3.83563 °/min
Orbital period
93.86 mins
BSTAR
0.0010696
Loading maneuver chart data...
Computing Atmospheric mass density...
Loading historical data...
Loading historical data...
Loading historical data...
Loading historical data...
Loading historical data...
Loading historical data...
Loading historical data...

Documentation

Showing up to 5 results
|